Find Starlink 37982

NORAD ID: 100285 Int'l Des: 2026-183 Owner: SPXS Country: US Constellation: starlink operational

Current View

Loading 3D Globe...

About Starlink 37982

Starlink 37982 (NORAD 100285) is a starlink constellation satellite launched Aug 11, 2026 by SPXS of US. with a mass of 575.00 kg.

Upcoming Passes

Passes for default location (London). Set your location on the main map for personalized predictions.

Altitude History

Loading altitude history...

Two-Line Element Set

1 A0285U 26183P 26262.55282328 .00037082 00000-0 67121-3 0 9998
2 A0285 53.1588 262.8590 0000865 86.8006 273.3103 15.49326463 6149
Epoch: Sep 19, 2026 • Age: 25 hours

Current Status

Altitude 423.2 km
Apogee / Perigee N/A
Velocity 7.66 km/s
Sub-Earth Point 47.74°N, 165.41°E
Launch Date Aug 11, 2026
Age 0.1 years
Type internet

Technical Details

Classification Payload
Mass 575.00 kg
Dry Mass 530.00 kg
Length 0.30 m
Span 29.00 m
Shape ? Box + pan
Manufacturer SPXS
Bus Type Starlink V2MO
Phase Status In Orbit
Owner/State SPXS/US

Most Searched